[[{"header":{"parameterUnit":"m.s-1","parameterCategory":1,"la1":30.2991,"la2":30.254,"lo1":-89.0895,"lo2":-89.0444,"dy":0.0017,"dx":0.0017,"nx":28,"ny":28,"refTime":"2023-11-16T09:00:00:Z","depth":0,"parameterNumber":2,"parameterNumberName":"U-component_of_WINDS"},"data":[0,0,0,0,0,0,0,0,0,0,0,0,0,0,0,0,0,0,0,0,0,0,0,0,0,0,0,0,0,0,0,0,0,0,0,0,0,0,0,0,0,0,0,0,0,0,0,0,0,0,0,0,0,0,0,0,0,0,-2.1798,-2.1798,0,-2.1773,-2.1773,-2.1772,-2.1699,-2.1697,-2.1696,-2.1694,-2.1672,-2.1673,-2.1674,0,0,0,0,0,0,0,0,0,0,0,0,0,-2.1787,-2.1788,-2.1798,-2.1798,-2.1798,-2.1773,-2.1773,-2.1772,-2.1699,-2.1697,-2.1695,-2.1693,-2.1672,-2.1673,-2.1674,0,0,0,0,0,0,0,0,0,0,0,0,0,-2.178,-2.1788,-2.1798,-2.1758,-2.1754,-2.1773,-2.1773,-2.1772,-2.1699,-2.1697,-2.1695,-2.1692,-2.1672,-2.1673,-2.1675,-2.1732,0,0,-2.1679,-2.1679,0,0,0,0,0,0,0,0,-2.1781,-2.1781,-2.1764,-2.1761,-2.1757,-2.1736,-2.1761,-2.1759,-2.17,-2.172,-2.1694,-2.1691,-2.1696,-2.1695,-2.1696,-2.1731,-2.173,-2.1679,-2.168,-2.168,-2.1681,0,0,0,0,0,0,0,-2.1781,-2.1781,-2.1788,-2.1764,-2.1759,-2.1743,-2.1739,-2.176,-2.1722,-2.1718,-2.1713,-2.1711,-2.1693,-2.1695,-2.1695,-2.1729,-2.1679,-2.168,-2.1681,-2.1682,-2.1812,-2.1815,0,0,0,0,0,0,-2.1787,-2.1782,-2.1789,-2.1788,-2.1763,-2.1745,-2.174,-2.1745,-2.1722,-2.1716,-2.1713,-2.1707,-2.1694,-2.1693,-2.1694,-2.1762,-2.168,-2.1682,-2.1682,-2.181,-2.1813,-2.1816,0,0,0,0,0,0,-2.1787,-2.1788,-2.179,-2.1783,-2.1782,-2.1747,-2.1754,-2.1746,-2.1747,-2.1717,-2.1711,-2.1721,-2.1692,-2.1692,-2.1723,-2.176,-2.1682,-2.1684,-2.1806,-2.1811,-2.1814,-2.1897,0,0,0,0,0,0,-2.1787,-2.1789,-2.1809,-2.1784,-2.1783,-2.1819,-2.1756,-2.1747,-2.175,-2.1742,-2.1723,-2.1718,-2.169,-2.1721,-2.1724,-2.176,-2.1685,-2.1803,-2.1808,-2.1813,-2.1891,-2.1903,-2.1914,0,0,0,0,0,-2.1787,-2.1834,-2.1811,-2.1812,-2.1808,-2.1821,-2.182,-2.1786,-2.1753,-2.1774,-2.1755,-2.1719,-2.1754,-2.1725,-2.1728,-2.1765,-2.1801,-2.1807,-2.1813,-2.1886,-2.1901,-2.1913,0,0,0,0,0,0,-2.1866,-2.183,-2.1804,-2.1844,-2.1836,-2.1809,-2.1835,-2.1802,-2.1805,-2.1798,-2.1756,-2.1752,-2.1791,-2.178,-2.1748,-2.182,-2.1772,-2.1779,-2.1826,-2.184,-2.1852,-2.1855,-2.1686,0,0,0,0,0,-2.1887,-2.19,-2.1868,-2.1907,-2.1904,-2.187,-2.1875,-2.1848,-2.1839,-2.1836,-2.1819,-2.1812,-2.1822,-2.183,-2.1837,-2.1887,-2.1884,-2.1914,-2.1926,-2.1935,-2.1943,-2.1972,-2.1986,-2.1835,-2.1835,-2.1835,0,0,-2.1933,-2.1915,-2.1926,-2.1922,-2.1913,-2.1929,-2.1868,-2.1887,-2.1899,-2.1839,-2.1868,-2.1855,-2.1845,-2.1887,-2.1904,-2.188,-2.1983,-2.1943,-2.1951,-2.1953,-2.1979,-2.1994,-2.2007,-2.1839,-2.1838,-2.1838,0,0,-2.2026,-2.2012,-2.2044,-2.2035,-2.2022,-2.1998,-2.2006,-2.1983,-2.1972,-2.2,-2.1956,-2.197,-2.1987,-2.1983,-2.1983,-2.2073,-2.2041,-2.2076,-2.2138,-2.2166,-2.2178,-2.2189,-2.2225,-2.2238,-2.2083,-2.2083,-2.2083,0,-2.2086,-2.2106,-2.2065,-2.2087,-2.2088,-2.2032,-2.2065,-2.2059,-2.2049,-2.2052,-2.2023,-2.2045,-2.2034,-2.2075,-2.2097,-2.2097,-2.2107,-2.208,-2.218,-2.219,-2.2199,-2.2233,-2.2246,-2.2088,-2.2087,-2.2087,-2.2086,0,-2.2182,-2.2197,-2.2224,-2.2215,-2.2218,-2.2246,-2.221,-2.2219,-2.2192,-2.2172,-2.2202,-2.2187,-2.2191,-2.2198,-2.2172,-2.2236,-2.2222,-2.2187,-2.2138,-2.2219,-2.225,-2.2262,-2.2095,-2.2093,-2.2091,-2.209,0,0,-2.2327,-2.2293,-2.2304,-2.23,-2.228,-2.2292,-2.2317,-2.232,-2.233,-2.2324,-2.2347,-2.2362,-2.233,-2.233,-2.2303,-2.2327,-2.2404,-2.2289,-2.2289,-2.2315,-2.2478,-2.2508,-2.2523,-2.238,-2.2383,-2.2384,-2.248,0,-2.2418,-2.2459,-2.2422,-2.2471,-2.2486,-2.2432,-2.2455,-2.2446,-2.2428,-2.2439,-2.2419,-2.2433,-2.2387,-2.2387,-2.2408,-2.239,-2.2437,-2.2382,-2.2405,-2.2406,-2.2414,-2.2539,-2.257,-2.2662,-2.2492,-2.2494,-2.2495,0,-2.253,-2.2529,-2.2579,-2.2557,-2.2562,-2.2583,-2.2583,-2.2593,-2.2583,-2.2568,-2.2568,-2.2534,-2.2559,-2.2508,-2.2544,-2.2508,-2.2514,-2.2507,-2.2509,-2.2514,-2.2459,-2.2551,-2.2689,-2.2705,-2.2513,-2.2512,-2.251,0,-2.2636,-2.2646,-2.2678,-2.2676,-2.265,-2.2666,-2.2657,-2.2643,-2.2648,-2.2648,-2.2651,-2.2654,-2.2657,-2.2662,-2.2631,-2.2595,-2.2672,-2.2618,-2.2664,-2.2665,-2.2687,-2.2687,-2.2832,-2.2683,-2.2683,-2.2683,-2.2682,0,-2.2744,-2.2778,-2.2726,-2.2747,-2.2784,-2.274,-2.2779,-2.2763,-2.2752,-2.277,-2.2722,-2.2741,-2.2696,-2.271,-2.2685,-2.2721,-2.2722,-2.2713,-2.2707,-2.272,-2.2722,-2.2727,-2.2722,-2.2686,-2.2685,-2.2685,-2.2684,0,-2.2871,-2.2836,-2.2869,-2.2841,-2.2834,-2.2864,-2.284,-2.2859,-2.2836,-2.286,-2.2863,-2.2829,-2.2843,-2.2811,-2.2821,-2.2804,-2.2857,-2.2838,-2.2861,-2.2857,-2.2907,-2.2905,-2.3065,-2.3086,-2.2919,-2.2921,-2.2922,0,-2.2944,-2.2969,-2.2943,-2.2951,-2.2944,-2.2957,-2.2961,-2.2919,-2.2925,-2.2915,-2.2936,-2.2945,-2.2952,-2.2977,-2.2955,-2.2962,-2.2947,-2.3002,-2.2948,-2.2961,-2.2953,-2.2954,-2.2958,-2.3015,-2.3017,-2.3019,-2.302,0,-2.308,-2.3062,-2.3069,-2.307,-2.3076,-2.3075,-2.3072,-2.3081,-2.3036,-2.3046,-2.3059,-2.3064,-2.3073,-2.3085,-2.3087,-2.3079,-2.3044,-2.3037,-2.3049,-2.3065,-2.3079,-2.3077,-2.2897,-2.3035,-2.3033,-2.3032,-2.3031,-2.3031,-2.3186,-2.3206,-2.3192,-2.3201,-2.3193,-2.3191,-2.3208,-2.3187,-2.3197,-2.3201,-2.3174,-2.3194,-2.3184,-2.3183,-2.3178,-2.3194,-2.317,-2.3186,-2.3191,-2.3197,-2.3207,-2.3072,-2.3194,-2.3193,-2.3193,-2.3193,-2.3192,0,-2.3323,-2.331,-2.3319,-2.3315,-2.3323,-2.3285,-2.3279,-2.329,-2.3307,-2.3299,-2.3305,-2.3322,-2.3333,-2.331,-2.3318,-2.3336,-2.332,-2.334,-2.3341,-2.334,-2.3227,-2.3218,-2.3353,-2.3353,-2.3353,-2.3352,-2.3352,-2.3352,-2.3396,-2.343,-2.341,-2.344,-2.3427,-2.3445,-2.3445,-2.3443,-2.3437,-2.3457,-2.3465,-2.3449,-2.3437,-2.3443,-2.3452,-2.3445,-2.3453,-2.3479,-2.3468,-2.3363,-2.3348,-2.3333,-2.3325,-2.348,-2.348,-2.3581,-2.3582,-2.3582]},{"header":{"parameterUnit":"m.s-1","parameterCategory":1,"la1":30.2991,"la2":30.254,"lo1":-89.0895,"lo2":-89.0444,"dy":0.0017,"dx":0.0017,"nx":28,"ny":28,"refTime":"2023-11-16T09:00:00:Z","depth":0,"parameterNumber":3,"parameterNumberName":"V-component_of_WINDS"},"data":[0,0,0,0,0,0,0,0,0,0,0,0,0,0,0,0,0,0,0,0,0,0,0,0,0,0,0,0,0,0,0,0,0,0,0,0,0,0,0,0,0,0,0,0,0,0,0,0,0,0,0,0,0,0,0,0,0,0,-2.6179,-2.6178,0,-2.6139,-2.6138,-2.6138,-2.6093,-2.6092,-2.6092,-2.6091,-2.6048,-2.6048,-2.6047,0,0,0,0,0,0,0,0,0,0,0,0,0,-2.6215,-2.6214,-2.6179,-2.6178,-2.6178,-2.6139,-2.6138,-2.6138,-2.6093,-2.6092,-2.6091,-2.6091,-2.6048,-2.6048,-2.6047,0,0,0,0,0,0,0,0,0,0,0,0,0,-2.619,-2.6214,-2.6179,-2.6151,-2.6148,-2.6139,-2.6138,-2.6138,-2.6093,-2.6092,-2.6091,-2.609,-2.6049,-2.6048,-2.6047,-2.6062,0,0,-2.6045,-2.6044,0,0,0,0,0,0,0,0,-2.6191,-2.6188,-2.6155,-2.6153,-2.6149,-2.612,-2.6135,-2.6112,-2.6093,-2.6114,-2.6091,-2.609,-2.6073,-2.607,-2.6065,-2.606,-2.6058,-2.6045,-2.6044,-2.6044,-2.6044,0,0,0,0,0,0,0,-2.6193,-2.619,-2.6163,-2.6155,-2.6151,-2.614,-2.6135,-2.6131,-2.6099,-2.6112,-2.6109,-2.6105,-2.6071,-2.6065,-2.6063,-2.6058,-2.6045,-2.6044,-2.6044,-2.6043,-2.6065,-2.6066,0,0,0,0,0,0,-2.6199,-2.6191,-2.6164,-2.6162,-2.6168,-2.614,-2.6135,-2.613,-2.6099,-2.6094,-2.6106,-2.6103,-2.6067,-2.6064,-2.6062,-2.6079,-2.6044,-2.6043,-2.6043,-2.6064,-2.6065,-2.6067,0,0,0,0,0,0,-2.62,-2.6197,-2.6166,-2.6176,-2.6171,-2.614,-2.6136,-2.613,-2.6125,-2.6094,-2.6088,-2.6106,-2.6066,-2.6063,-2.6063,-2.6077,-2.6043,-2.6042,-2.6063,-2.6065,-2.6066,-2.6112,0,0,0,0,0,0,-2.6201,-2.6198,-2.6203,-2.6176,-2.6171,-2.6168,-2.6137,-2.613,-2.6124,-2.612,-2.6093,-2.6088,-2.6065,-2.6064,-2.6062,-2.6075,-2.6042,-2.6062,-2.6064,-2.6065,-2.611,-2.6115,-2.612,0,0,0,0,0,-2.6203,-2.6217,-2.6204,-2.6201,-2.6177,-2.6169,-2.6166,-2.614,-2.6125,-2.613,-2.6111,-2.6089,-2.6075,-2.6065,-2.6062,-2.6075,-2.6061,-2.6063,-2.6065,-2.6107,-2.6114,-2.612,0,0,0,0,0,0,-2.6246,-2.6213,-2.6198,-2.6205,-2.619,-2.6162,-2.6168,-2.6148,-2.6138,-2.6134,-2.6102,-2.6097,-2.6101,-2.6087,-2.6076,-2.6088,-2.6065,-2.6067,-2.6097,-2.6104,-2.6109,-2.6113,-2.6041,0,0,0,0,0,-2.6257,-2.6254,-2.6225,-2.6233,-2.6227,-2.6199,-2.6194,-2.6176,-2.6159,-2.6153,-2.6133,-2.6118,-2.611,-2.6106,-2.6097,-2.6107,-2.6101,-2.6114,-2.612,-2.6124,-2.6127,-2.6132,-2.6138,-2.6074,-2.6074,-2.6074,0,0,-2.6278,-2.626,-2.626,-2.6242,-2.6228,-2.6226,-2.6194,-2.6192,-2.619,-2.6152,-2.6152,-2.6137,-2.6118,-2.6124,-2.6125,-2.6112,-2.6143,-2.6127,-2.6131,-2.6131,-2.6135,-2.6141,-2.6147,-2.6076,-2.6076,-2.6075,0,0,-2.6317,-2.6302,-2.6308,-2.6296,-2.6276,-2.6258,-2.6259,-2.6234,-2.6223,-2.6222,-2.6194,-2.6191,-2.6178,-2.6166,-2.6158,-2.6192,-2.6171,-2.619,-2.6219,-2.6224,-2.6229,-2.6234,-2.6248,-2.6253,-2.6192,-2.6192,-2.6192,0,-2.6346,-2.6342,-2.6314,-2.6314,-2.6308,-2.6274,-2.628,-2.6269,-2.6247,-2.6244,-2.6229,-2.6214,-2.6198,-2.6201,-2.621,-2.6203,-2.6205,-2.6193,-2.6231,-2.6235,-2.6239,-2.6252,-2.6257,-2.6194,-2.6194,-2.6194,-2.6194,0,-2.638,-2.6377,-2.6384,-2.6365,-2.6359,-2.6362,-2.6335,-2.6332,-2.6313,-2.6296,-2.6296,-2.6276,-2.6264,-2.6262,-2.6244,-2.6263,-2.6256,-2.6237,-2.6213,-2.6248,-2.626,-2.6264,-2.6198,-2.6197,-2.6196,-2.6196,0,0,-2.6446,-2.6412,-2.6415,-2.6407,-2.6383,-2.638,-2.6381,-2.637,-2.6368,-2.6354,-2.6356,-2.6346,-2.6328,-2.6319,-2.6299,-2.6304,-2.6335,-2.6284,-2.6283,-2.6296,-2.6356,-2.6373,-2.6379,-2.632,-2.6321,-2.6322,-2.6359,0,-2.6481,-2.6484,-2.6459,-2.6468,-2.6465,-2.6433,-2.6435,-2.642,-2.6404,-2.6399,-2.6381,-2.6375,-2.6351,-2.6346,-2.6349,-2.6331,-2.6347,-2.6327,-2.6322,-2.6322,-2.633,-2.6384,-2.6401,-2.6437,-2.6363,-2.6363,-2.6364,0,-2.6523,-2.6513,-2.6523,-2.6499,-2.6497,-2.6499,-2.6487,-2.6483,-2.6466,-2.6453,-2.6444,-2.6421,-2.6421,-2.6397,-2.6398,-2.6385,-2.6381,-2.6371,-2.6372,-2.6372,-2.6347,-2.6388,-2.6448,-2.6454,-2.6371,-2.637,-2.637,0,-2.6573,-2.6561,-2.6566,-2.6559,-2.6531,-2.6534,-2.6522,-2.6504,-2.6499,-2.6488,-2.6485,-2.6473,-2.6467,-2.6459,-2.6434,-2.6419,-2.6438,-2.6411,-2.6429,-2.6429,-2.6436,-2.6436,-2.6498,-2.643,-2.643,-2.643,-2.643,0,-2.6617,-2.6625,-2.6588,-2.6591,-2.6598,-2.6569,-2.6577,-2.6562,-2.6546,-2.6546,-2.6516,-2.6516,-2.6482,-2.6478,-2.6458,-2.6463,-2.646,-2.645,-2.6446,-2.6454,-2.6456,-2.6453,-2.6451,-2.6431,-2.6431,-2.643,-2.643,0,-2.6675,-2.6651,-2.6654,-2.6627,-2.6621,-2.6628,-2.6605,-2.6607,-2.6588,-2.6588,-2.6586,-2.6558,-2.6552,-2.6526,-2.6513,-2.65,-2.6511,-2.65,-2.6518,-2.6515,-2.6535,-2.6534,-2.6598,-2.6606,-2.6531,-2.6532,-2.6533,0,-2.6706,-2.6711,-2.6685,-2.6683,-2.6673,-2.667,-2.6665,-2.6636,-2.6632,-2.6613,-2.6617,-2.6609,-2.6601,-2.6593,-2.6571,-2.6562,-2.6551,-2.6574,-2.655,-2.6559,-2.6554,-2.6555,-2.6556,-2.6581,-2.6582,-2.6582,-2.6583,0,-2.6763,-2.6751,-2.6745,-2.6736,-2.6731,-2.6721,-2.671,-2.671,-2.6677,-2.6674,-2.6668,-2.6662,-2.665,-2.6643,-2.663,-2.6618,-2.6596,-2.6591,-2.6595,-2.6605,-2.6616,-2.6612,-2.6535,-2.659,-2.6589,-2.6589,-2.6588,-2.6588,-2.681,-2.6813,-2.6797,-2.6791,-2.678,-2.677,-2.6771,-2.6753,-2.6748,-2.6737,-2.6719,-2.6716,-2.6699,-2.6679,-2.6669,-2.6666,-2.6653,-2.6658,-2.666,-2.6662,-2.6668,-2.6615,-2.6663,-2.6663,-2.6663,-2.6662,-2.6662,0,-2.6868,-2.6855,-2.6851,-2.6837,-2.6833,-2.6812,-2.6798,-2.6796,-2.6794,-2.678,-2.6774,-2.6767,-2.676,-2.6738,-2.6728,-2.6731,-2.672,-2.6729,-2.673,-2.6728,-2.6678,-2.6677,-2.6738,-2.6738,-2.6738,-2.6738,-2.6738,-2.6738,-2.6898,-2.6904,-2.6889,-2.6889,-2.6876,-2.6874,-2.6868,-2.6859,-2.6848,-2.6843,-2.6837,-2.6823,-2.6806,-2.6795,-2.6788,-2.6781,-2.678,-2.6793,-2.6783,-2.6738,-2.6731,-2.6724,-2.6723,-2.6792,-2.6792,-2.6833,-2.6834,-2.6834]}]]